Location: Golden Pond Observatory
(36.7773°N, 88.0631°W)
Time: 02:04:01
(UTC-05:00)

X-37B - Visible Passes

Search period start: 01 October 2020 00:00
Search period end: 11 October 2020 00:00
Orbit: 386 x 387 km, 45.0° (Epoch: 18 September)

Date Brightness Start Highest point End Pass type
(mag) Time Alt. Az. Time Alt. Az. Time Alt. Az.
01 Oct 1.0 19:39:28 10° SW 19:42:29 42° SE 19:43:20 33° ESE visible
02 Oct 1.6 20:17:23 10° WSW 20:20:04 46° NW 20:20:04 46° NW visible
03 Oct 0.5 19:18:42 10° WSW 19:21:52 87° SE 19:24:24 15° ENE visible
03 Oct 4.0 20:56:10 10° WNW 20:56:40 13° WNW 20:56:40 13° WNW visible
04 Oct 2.0 19:57:09 10° W 20:00:02 31° NNW 20:00:52 27° NNE visible
05 Oct 1.3 18:58:15 10° WSW 19:01:21 50° NNW 19:04:27 10° NE visible
05 Oct 3.4 20:36:03 10° NW 20:37:16 16° NW 20:37:16 16° NW visible
06 Oct 2.5 19:37:02 10° WNW 19:39:39 23° NNW 19:41:19 16° NNE visible
07 Oct 3.0 20:15:53 10° NW 20:17:36 17° NNW 20:17:36 17° NNW visible
08 Oct 2.7 19:16:56 10° NW 19:19:19 19° N 19:21:35 11° NE visible
09 Oct 2.7 19:55:31 10° NW 19:57:49 18° N 19:57:49 18° N visible
10 Oct 2.7 18:56:45 10° NW 18:59:01 18° N 19:01:18 10° NE visible
10 Oct 3.6 20:33:29 10° NW 20:34:04 14° NW 20:34:04 14° NW visible
